Location: Guilderland
(42.7045°N, 73.9115°W)
Time: 19:30:41
(UTC+00:00)

Daily predictions for brighter satellites

Satellite Brightness Start Highest point End
(mag) Time Altitude Azimuth Time Altitude Azimuth Time Altitude Azimuth
Nadezhda 3 Rocket 4.0 22:15:16 10° N 22:21:36 76° E 22:27:56 10° SSE
ATLAS CENTAUR R/B 4.3 22:16:55 10° W 22:22:01 45° NNW 22:35:18 10° NE
Cosmos 2333 Rocket 3.5 22:17:13 10° NW 22:22:41 47° WSW 22:28:04 10° S
Cosmos 1812 Rocket 3.6 22:22:04 10° N 22:26:34 79° E 22:31:02 10° S
Atlas Centaur 2 4.0 22:24:52 10° S 22:26:35 12° SSE 22:28:25 10° SE
H-2A ROCKET BODY 4.2 22:12:20 10° WSW 22:26:39 29° SSW 22:31:12 10° SE
CORIOLIS 4.1 22:22:51 10° SSE 22:28:13 80° ENE 22:33:36 10° NNW
SL-14 R/B 4.4 22:29:36 10° SSW 22:33:27 47° WNW 22:37:17 10° N
ERBS 3.3 22:30:43 10° WSW 22:33:54 41° NW 22:37:05 10° NE
H-2A R/B 3.3 22:30:19 10° S 22:34:07 64° W 22:38:00 10° NNW
YAOGAN 1 3.7 22:31:07 10° ESE 22:34:30 23° ENE 22:37:54 10° NNE
CZ-4C R/B 3.6 22:27:35 10° NW 22:34:55 67° WSW 22:43:09 10° SSE
SL-16 R/B 2.9 22:30:09 10° N 22:35:13 32° NE 22:40:13 10° ESE
Cosmos 1242 Rocket 4.4 22:32:52 10° SW 22:36:03 32° WNW 22:39:18 10° N
SL-8 Rocket 4.3 22:31:54 10° SSE 22:37:50 45° E 22:43:45 10° NNE
Cosmos 1340 Rocket 3.1 22:34:34 10° NNW 22:38:33 71° W 22:42:30 10° S
Cosmos 2219 3.4 22:35:23 10° SSW 22:40:59 78° WNW 22:46:40 10° NNE
Cosmos 2082 4.1 22:36:42 10° S 22:41:55 41° ESE 22:47:10 10° NE
USA 234 3.3 22:40:56 10° SE 22:47:29 88° NE 22:54:03 10° NW
Cosmos 2297 Rocket 2.2 22:43:47 10° SSW 22:49:26 87° ESE 22:55:08 10° NNE
SL-8 R/B 3.7 22:44:48 10° WSW 22:49:38 89° SE 22:53:51 14° ENE
Cosmos 2341 Rocket 4.0 22:44:35 10° S 22:50:57 79° E 22:57:18 10° N
Cosmos 2251 Rocket 4.2 22:47:18 10° N 22:52:06 33° ENE 22:56:54 10° SE
Cosmos 1980 4.1 22:48:52 10° NNW 22:54:32 70° WSW 23:00:10 10° SSE
Meteor 1-21 Rocket 4.2 22:51:29 10° S 22:57:05 87° E 23:02:50 10° N
Meteor 2-10 Rocket 3.6 22:53:54 10° N 22:59:05 55° ENE 23:04:04 10° SSE
USA 32 4.1 22:54:04 10° S 22:59:17 86° W 23:04:33 10° N
Cosmos 2263 Rocket 4.1 22:59:57 10° ESE 23:00:06 10° ESE 23:00:06 10° ESE
Cosmos 2227 Rocket 2.3 22:56:41 10° SSW 23:02:20 82° WNW 23:08:02 10° NNE
YAOGAN 6 2.7 23:00:37 10° S 23:04:17 81° WSW 23:07:58 10° NNW
Cosmos 1953 Rocket 3.6 23:00:04 10° S 23:04:30 66° E 23:08:58 10° NNE
NOAA 11 4.4 22:59:20 10° SE 23:04:34 46° ENE 23:09:47 10° N
FengYun 1-2 T 4.3 23:00:12 10° SSE 23:05:50 86° ENE 23:11:32 10° NNW
COSMO-SKYMED 1 2.5 23:03:02 10° NNE 23:07:24 83° E 23:11:44 10° SSW
BREEZE-M DEB (TANK) 2.2 23:05:27 10° WSW 23:07:47 62° NNW 23:09:00 24° NE
Cosmos 1758 Rocket 4.0 23:04:46 10° SSW 23:09:02 64° W 23:13:20 10° N
Cosmos 1703 3.3 23:05:36 10° S 23:09:28 55° E 23:13:22 10° NNE
Envisat 3.8 23:06:43 10° S 23:11:41 55° W 23:16:42 10° NNW
ADEOS Rocket 3.9 23:08:13 10° NNE 23:14:25 36° E 23:21:07 10° SSE
Cosmos 864 Rocket 4.4 23:09:09 10° S 23:15:11 66° E 23:21:17 10° NNE
Cosmos 1339 Rocket 4.4 23:10:24 10° N 23:16:30 76° E 23:22:39 10° SSE
DELTA 2 R/B (1) 3.9 23:11:45 10° W 23:17:16 64° S 23:21:16 19° ESE
Cosmos 2218 Rocket 4.0 23:11:10 10° S 23:17:29 77° E 23:23:53 10° N
Cosmos 1939 Rocket 3.0 23:14:00 10° SE 23:17:44 45° ENE 23:21:33 10° N
Cosmos 44 3.3 23:14:20 10° SW 23:18:56 72° NW 23:22:41 14° NNE
Shenzhou-11 Module 1.5 23:16:37 10° W 23:19:18 84° S 23:19:56 48° E
CSL-04 Debris 4.1 23:27:35 10° SSE 23:32:58 84° ENE 23:38:24 10° NNW
Okean-O 4.5 23:32:36 10° SSW 23:36:36 33° W 23:40:37 10° NNW
CZ-2D R/B 3.1 23:33:55 10° SSE 23:37:43 80° ENE 23:41:35 10° N
Cosmos 1455 3.0 23:34:05 10° NNW 23:37:48 51° W 23:41:27 10° S
ISS -2.5 23:38:07 10° W 23:41:12 31° NNW 23:41:53 28° N
USA 116 3.6 23:43:22 25° N 23:45:00 60° WNW 23:48:03 10° SSW
Cosmos 2366 rocket 4.3 23:42:13 10° SSW 23:48:23 67° W 23:54:40 10° N
Meteor 2-12 Rocket 4.3 23:43:18 10° S 23:49:18 72° E 23:55:20 10° NNE
FALCON 9 R/B 4.0 23:35:24 10° SW 23:51:24 33° S 23:55:00 22° SE
Cosmos 44 Rocket 3.5 23:48:42 10° S 23:53:17 46° ESE 23:53:17 46° ESE
CZ-4 R/B 3.0 23:50:06 10° SSW 23:53:52 37° W 23:57:44 10° NNW
Cosmos 2221 3.4 23:50:33 10° N 23:53:03 32° NNE 23:53:03 32° NNE
